CW7977 Corfu GR current weather conditions

sailwx.info

Wind from 066 at 1 knots gusting 5

Air temperature 29.4° C
Dewpoint 22.2° C

Last reported at 2014-Jul-25 10:47 UTC.
Time now 2014-Jul-25 11:21 UTC

Location: N 39°37' E 019°54'.
View on Google Maps.

See reports from other nearby stations

  
Tides and Currents Weather Stations Pressure Air Temp Water Temp Dewpoint Dewpoint Depression Visibility Wind Speed Wind Dir Waves Ship Positions
date/time (UTC)wind fromknots sea level pressurealtimeterstation pressurevisibilityair tempwater tempwave heightnotes
2014-Jul-25 10:47 066 1 gusting 5 29.4
2014-Jul-25 10:37 095 1 gusting 6 28.9
2014-Jul-25 10:27 090 2 gusting 5 28.3
2014-Jul-25 10:17 153 5 gusting 6 28.3
2014-Jul-25 10:07 125 2 gusting 6 27.8
2014-Jul-25 09:57 139 4 gusting 6 27.8
2014-Jul-25 09:47 102 1 gusting 6 27.8
2014-Jul-25 09:37 136 4 gusting 6 27.2
2014-Jul-25 09:27 135 4 gusting 6 27.8
2014-Jul-25 09:17 128 2 gusting 6 27.2
2014-Jul-25 09:07 115 3 gusting 6 27.2
2014-Jul-25 08:57 137 2 gusting 5 26.7
2014-Jul-25 08:47 135 3 gusting 6 26.7
2014-Jul-25 08:37 135 3 gusting 6 26.1
2014-Jul-25 08:27 123 1 gusting 6 26.1
2014-Jul-25 08:17 151 2 gusting 5 26.1
2014-Jul-25 08:07 138 1 gusting 10 25.6
2014-Jul-25 07:57 059 0 gusting 4 25.6
2014-Jul-25 07:47 068 1 gusting 4 25.6
2014-Jul-25 07:37 155 0 gusting 4 25.0
2014-Jul-25 07:27 058 1 gusting 4 24.4
2014-Jul-25 07:17 023 0 gusting 2 24.4
2014-Jul-25 07:07 041 1 gusting 2 24.4
2014-Jul-25 06:57 074 1 gusting 5 23.9
2014-Jul-25 06:47 020 0 gusting 5 23.9
2014-Jul-25 06:27 337 0 gusting 4 23.3
2014-Jul-25 06:17 318 23.3
2014-Jul-25 06:07 331 1 gusting 6 23.3
2014-Jul-25 05:47 029 23.3
2014-Jul-25 05:37 293 0 gusting 1 23.3
2014-Jul-25 05:27 338 0 gusting 1 23.3
2014-Jul-25 05:17 248 22.8
2014-Jul-25 05:07 225 22.8
2014-Jul-25 04:57 202 22.2
2014-Jul-25 04:47 225 0 gusting 2 21.7
2014-Jul-25 04:37 232 21.7
2014-Jul-25 04:27 225 21.7
2014-Jul-25 04:17 225 21.7
2014-Jul-25 04:07 248 21.7
2014-Jul-25 03:57 249 21.7
2014-Jul-25 03:47 248 21.7
2014-Jul-25 03:37 225 21.7
2014-Jul-25 03:27 225 21.7
2014-Jul-25 03:17 270 21.7
2014-Jul-25 03:07 247 21.7
2014-Jul-25 02:57 239 21.7
2014-Jul-25 02:47 248 0 gusting 2 22.2
2014-Jul-25 02:37 315 21.7
2014-Jul-25 02:27 315 21.7
2014-Jul-25 02:17 315 0 gusting 1 22.2
2014-Jul-25 02:07 225 22.2
2014-Jul-25 01:57 202 22.2
2014-Jul-25 01:47 202 22.2
2014-Jul-25 01:37 225 22.2
2014-Jul-25 01:27 234 0 gusting 2 22.2
2014-Jul-25 01:17 224 22.2
2014-Jul-25 01:07 217 22.2
2014-Jul-25 00:57 220 22.2
2014-Jul-25 00:47 212 22.2
2014-Jul-25 00:37 248 22.2
2014-Jul-25 00:27 248 22.2
2014-Jul-25 00:17 202 22.2
2014-Jul-25 00:07 202 22.2
2014-Jul-24 23:47 225 22.8
2014-Jul-24 23:37 225 22.2
2014-Jul-24 23:27 248 22.2
2014-Jul-24 23:17 292 22.2
2014-Jul-24 23:07 292 0 gusting 2 22.2
2014-Jul-24 22:57 298 1 gusting 4 22.8
2014-Jul-24 22:47 292 0 gusting 2 22.8
2014-Jul-24 22:37 276 0 gusting 1 22.8
2014-Jul-24 22:27 279 22.8
2014-Jul-24 22:17 231 0 gusting 1 22.8
2014-Jul-24 22:07 232 1 gusting 2 22.8
2014-Jul-24 21:57 221 1 gusting 2 22.8
2014-Jul-24 21:47 233 22.8
2014-Jul-24 21:37 269 0 gusting 4 23.3
2014-Jul-24 21:27 258 1 gusting 4 23.3
2014-Jul-24 21:17 261 23.3
2014-Jul-24 21:07 261 0 gusting 4 23.3
2014-Jul-24 20:57 276 23.3
2014-Jul-24 20:47 280 1 gusting 5 23.3
2014-Jul-24 20:37 269 0 gusting 5 23.3
2014-Jul-24 20:27 255 0 gusting 2 23.3
2014-Jul-24 20:17 292 23.3
2014-Jul-24 20:07 280 0 gusting 6 23.3
2014-Jul-24 19:57 283 0 gusting 4 23.3
2014-Jul-24 19:47 263 1 gusting 6 23.3
2014-Jul-24 19:37 293 1 gusting 5 23.9
2014-Jul-24 19:27 266 1 gusting 6 23.9
2014-Jul-24 19:17 246 1 gusting 5 23.9
2014-Jul-24 19:07 267 1 gusting 6 24.4
2014-Jul-24 18:57 255 0 gusting 5 24.4
2014-Jul-24 18:47 285 1 gusting 4 24.4
2014-Jul-24 18:37 278 0 gusting 6 24.4
2014-Jul-24 18:27 292 1 gusting 6 25.0
2014-Jul-24 18:17 290 1 gusting 7 25.0
2014-Jul-24 18:07 315 1 gusting 5 25.6
2014-Jul-24 17:57 279 1 gusting 5 25.6
2014-Jul-24 17:47 306 2 gusting 7 26.1
2014-Jul-24 17:37 323 2 gusting 6 26.7
2014-Jul-24 17:27 317 2 gusting 6 26.7
2014-Jul-24 17:17 304 2 gusting 6 27.2
2014-Jul-24 17:07 331 2 gusting 6 27.8
2014-Jul-24 16:57 344 4 gusting 6 28.3
2014-Jul-24 16:47 320 2 gusting 8 28.3
2014-Jul-24 16:27 308 3 gusting 8 28.3
2014-Jul-24 16:17 318 4 gusting 11 28.3
2014-Jul-24 16:07 325 1 gusting 8 28.3
2014-Jul-24 15:57 309 2 gusting 8 28.3
2014-Jul-24 15:47 317 4 gusting 8 28.3
2014-Jul-24 15:37 330 6 gusting 8 28.3
2014-Jul-24 15:27 330 5 gusting 8 28.3
2014-Jul-24 15:17 335 2 gusting 8 28.9
2014-Jul-24 15:07 329 3 gusting 7 28.3
2014-Jul-24 14:57 292 4 gusting 8 28.3
2014-Jul-24 14:47 322 6 gusting 13 28.3
2014-Jul-24 14:37 338 6 gusting 13 28.3
2014-Jul-24 14:27 344 6 gusting 11 28.9
2014-Jul-24 14:17 337 6 gusting 10 29.4
2014-Jul-24 14:07 338 6 gusting 10 30.0
2014-Jul-24 13:57 323 2 gusting 10 30.0
2014-Jul-24 13:47 265 5 gusting 10 30.0
2014-Jul-24 13:37 265 5 gusting 11 30.0
2014-Jul-24 13:27 283 6 gusting 10 30.0
2014-Jul-24 13:17 241 5 gusting 10 30.0
2014-Jul-24 13:07 271 6 gusting 11 30.0
2014-Jul-24 12:57 180 1 gusting 5 30.0
2014-Jul-24 12:47 081 3 gusting 6 30.0
2014-Jul-24 12:37 023 4 gusting 6 30.0
2014-Jul-24 12:27 057 0 gusting 6 30.0
2014-Jul-24 12:17 007 2 gusting 7 29.4
2014-Jul-24 12:07 234 2 gusting 8 29.4
2014-Jul-24 11:57 269 1 gusting 7 28.9
2014-Jul-24 11:47 271 3 gusting 7 28.3
2014-Jul-24 11:37 245 2 gusting 6 27.8
2014-Jul-24 11:27 133 4 gusting 6 27.2
2014-Jul-24 11:17 143 3 gusting 6 27.2
2014-Jul-24 11:07 135 2 gusting 6 26.7
2014-Jul-24 10:57 143 4 gusting 7 26.7
2014-Jul-24 10:47 129 5 gusting 6 26.7
2014-Jul-24 10:37 149 5 gusting 8 26.1
2014-Jul-24 10:27 127 6 gusting 7 26.1
2014-Jul-24 10:17 144 5 gusting 6 26.1
2014-Jul-24 10:07 146 2 gusting 6 26.1
2014-Jul-24 09:57 133 4 gusting 6 26.1
2014-Jul-24 09:47 135 4 gusting 6 25.6
2014-Jul-24 09:37 148 2 gusting 6 25.6
2014-Jul-24 09:27 135 4 gusting 6 25.6
2014-Jul-24 09:17 133 2 gusting 6 25.6
2014-Jul-24 09:07 090 3 gusting 6 25.6
2014-Jul-24 08:57 099 4 gusting 6 25.6
2014-Jul-24 08:47 143 3 gusting 6 25.0
2014-Jul-24 08:37 134 5 gusting 6 25.0
2014-Jul-24 08:27 139 2 gusting 6 25.0
2014-Jul-24 08:17 130 3 gusting 6 24.4
2014-Jul-24 08:07 116 1 gusting 6 24.4
2014-Jul-24 07:57 135 1 gusting 5 24.4
2014-Jul-24 07:47 135 2 gusting 6 23.9
2014-Jul-24 07:37 128 4 gusting 6 23.9
2014-Jul-24 07:27 128 23.3
2014-Jul-24 07:17 046 0 gusting 4 23.3
2014-Jul-24 07:07 063 1 gusting 5 23.3
2014-Jul-24 06:57 115 0 gusting 4 22.8
2014-Jul-24 06:47 093 0 gusting 4 22.8
2014-Jul-24 06:37 054 22.8
2014-Jul-24 06:27 049 3 gusting 6 22.2
2014-Jul-24 06:17 052 22.2
2014-Jul-24 06:07 046 0 gusting 2 22.2
2014-Jul-24 05:57 068 0 gusting 4 21.7
2014-Jul-24 05:47 019 1 gusting 2 21.7
2014-Jul-24 04:47 225 20.0
2014-Jul-24 04:37 225 0 gusting 1 20.0
2014-Jul-24 04:27 232 0 gusting 1 20.0
2014-Jul-24 04:17 248 20.0
2014-Jul-24 04:07 248 20.0
2014-Jul-24 03:57 225 0 gusting 1 20.0
2014-Jul-24 03:47 248 0 gusting 1 20.0
2014-Jul-24 03:37 270 20.0
2014-Jul-24 03:27 289 20.0
2014-Jul-24 03:17 292 20.0
2014-Jul-24 03:07 292 20.0
2014-Jul-24 02:57 248 20.0
2014-Jul-24 02:47 248 20.0
2014-Jul-24 02:37 248 20.0
2014-Jul-24 02:27 248 20.0
2014-Jul-24 02:17 241 20.0
2014-Jul-24 02:07 248 20.0
2014-Jul-24 01:57 248 20.0
2014-Jul-24 01:47 248 20.6
2014-Jul-24 01:37 248 0 gusting 1 20.6
2014-Jul-24 01:27 225 20.6
2014-Jul-24 01:17 248 20.6
2014-Jul-24 01:07 248 20.6
2014-Jul-24 00:57 232 0 gusting 4 20.6
2014-Jul-24 00:47 225 20.6
2014-Jul-24 00:37 233 20.6
2014-Jul-24 00:27 247 0 gusting 1 20.6
2014-Jul-24 00:17 244 20.6
2014-Jul-24 00:07 238 0 gusting 2 20.6
2014-Jul-23 23:57 242 0 gusting 1 20.6
2014-Jul-23 23:47 248 0 gusting 1 20.6
2014-Jul-23 23:37 292 20.6
2014-Jul-23 23:27 292 20.6
2014-Jul-23 23:17 292 20.6
2014-Jul-23 23:07 315 1 gusting 2 20.6
2014-Jul-23 22:57 275 20.6
2014-Jul-23 22:47 202 21.1
2014-Jul-23 22:37 225 21.1
2014-Jul-23 22:27 248 21.1
2014-Jul-23 22:17 248 21.1
2014-Jul-23 22:07 248 0 gusting 1 21.1
2014-Jul-23 21:57 248 0 gusting 1 21.1
2014-Jul-23 21:47 202 21.1
2014-Jul-23 21:37 248 21.1
2014-Jul-23 21:27 248 0 gusting 2 21.1
2014-Jul-23 21:17 225 21.1
2014-Jul-23 21:07 202 21.7
2014-Jul-23 20:57 248 0 gusting 2 21.7
2014-Jul-23 20:47 240 0 gusting 0 21.7
2014-Jul-23 20:37 265 21.7
2014-Jul-23 20:27 251 0 gusting 2 21.7
2014-Jul-23 20:17 225 1 gusting 1 21.7
2014-Jul-23 20:07 225 21.7
2014-Jul-23 19:57 197 21.7
2014-Jul-23 19:27 225 0 gusting 0 22.2
2014-Jul-23 19:07 225 22.8
2014-Jul-23 18:57 225 22.8
2014-Jul-23 18:47 180 22.8
2014-Jul-23 18:37 202 22.8
2014-Jul-23 18:27 180 23.3
2014-Jul-23 18:17 248 23.3
2014-Jul-23 18:07 242 0 gusting 2 23.3
2014-Jul-23 17:57 248 23.9
2014-Jul-23 17:47 241 0 gusting 2 24.4
2014-Jul-23 17:37 199 1 gusting 2 24.4
2014-Jul-23 17:27 225 1 gusting 2 24.4
2014-Jul-23 17:17 202 0 gusting 1 25.0
2014-Jul-23 17:07 225 0 gusting 1 25.0
2014-Jul-23 16:57 350 25.0
2014-Jul-23 16:37 068 24.4
2014-Jul-23 16:27 346 2 gusting 6 23.9
2014-Jul-23 16:17 338 2 gusting 6 23.9
2014-Jul-23 16:07 23.9
2014-Jul-23 15:47 036 1 gusting 6 24.4
2014-Jul-23 15:37 019 4 gusting 6 25.6
2014-Jul-23 15:27 014 2 gusting 7 25.6
2014-Jul-23 15:17 032 2 gusting 6 25.6
2014-Jul-23 15:07 020 2 gusting 6 25.0
2014-Jul-23 14:57 318 2 gusting 6 24.4
2014-Jul-23 14:47 339 1 gusting 4 23.9
2014-Jul-23 14:37 332 2 gusting 6 23.3
2014-Jul-23 14:27 305 0 gusting 2 23.3
2014-Jul-23 14:17 007 22.8
2014-Jul-23 14:07 045 1 gusting 5 22.2
2014-Jul-23 13:57 045 3 gusting 7 21.7
2014-Jul-23 13:47 008 4 gusting 17 22.8
2014-Jul-23 13:37 003 7 gusting 15 25.0
2014-Jul-23 13:27 356 2 gusting 6 26.1
2014-Jul-23 13:17 006 3 gusting 6 27.2
2014-Jul-23 13:07 205 0 gusting 4 27.2
2014-Jul-23 12:57 284 0 gusting 2 26.7
2014-Jul-23 12:47 225 26.1
2014-Jul-23 12:27 140 4 gusting 6 26.7
2014-Jul-23 12:17 135 1 gusting 6 26.7
2014-Jul-23 12:07 133 3 gusting 6 26.7
2014-Jul-23 11:57 137 2 gusting 6 26.7
2014-Jul-23 11:47 139 2 gusting 6 26.7
2014-Jul-23 11:27 129 3 gusting 6 27.2
2014-Jul-23 11:17 113 26.7
2014-Jul-23 11:07 151 3 gusting 6 26.7